CAPE
121 275 437 638 843 1037 1069 1205 1260 1300 1332 1342 1340 1273 1424 1462 1474 1604 1496 1412 1446 1388 1372 1367 1387 1572 1690 1588 1580 1657 1873 2020 2014 2016 1912 1899 2245 2389 3068 2808 3478 3939 4261 4403 4112 4210 3871 3755 3899 3934 3692 4147 4055 3753 4164 4190 4706 4619 4792 5209 4486 4094 3274 3797 4076 2928 2825 1613 2224 1075 1454 2012 1930 2221 1631 1654 1614 1720 2097 2366 2386 2242 2255 2619 2655
79 305 467 684 797 910 1018 1206 1318 1345 1426 1348 1240 1240 1345 1293 1342 1446 1444 1513 1479 1452 1469 1474 1674 1679 1715 1706 1575 1652 2025 2179 2159 2179 1915 2002 2990 3294 3011 3027 3597 3863 4091 4198 4270 3998 3856 3466 3732 3805 3910 3959 4200 4255 4622 4476 4463 4328 4392 4970 4707 3801 3688 3415 3729 3448 1920 923 1042 1120 1082 1324 1781 1440 1204 1190 1235 1317 1383 1773 2203 1773 1646 1954 2243
49 204 479 619 749 854 996 1184 1262 1258 1374 1306 1322 1328 1399 1339 1388 1647 1402 1426 1545 1518 1611 1711 1730 1784 1744 1880 1712 1696 1902 1972 1792 1959 2281 1918 2432 2888 3191 3602 3900 3622 3814 3928 3947 3837 3713 3781 3613 3963 3929 3895 4034 3737 3901 4010 4056 3961 4444 4508 4043 3817 3661 3213 4025 3658 1340 1738 2109 1747 1598 1797 2047 1722 1364 1358 949 1144 1216 1307 1553 1481 1590 1923 2393
81 226 415 573 755 898 1016 1179 1267 1214 1334 1326 1342 1440 1333 1451 1512 1604 1552 1462 1606 1634 1574 1650 1772 1897 1890 1865 1857 1716 1818 2190 2533 2724 2674 2398 2129 2749 3259 3763 3771 3234 3431 3502 3476 3907 4042 3778 3615 3782 4273 4516 4289 3718 3776 3636 3849 4088 3766 4128 4730 3066 2392 2924 3258 3486 2427 1766 1756 1765 1675 1739 980 1596 1979 1883 1106 1167 1123 1227 1362 1577 1808 2159 2396
84 222 376 596 759 825 1066 1212 1221 1199 1250 1298 1230 1246 1189 1352 1384 1476 1591 1567 1621 1734 1723 1768 1854 1769 1766 1867 1864 2017 1967 2099 2118 2189 2349 2516 2224 2725 2870 3641 3762 3307 3296 3543 3471 3869 4078 4106 3948 3798 4146 4425 3984 3760 3848 3203 3484 3686 4313 4742 4205 3872 2680 2873 2989 3070 3256 3014 2449 2771 2049 2666 1260 1426 1197 2238 918 1022 1200 1259 2174 1740 1545 2104 1959
92 200 427 595 736 886 1100 1266 1212 1138 1198 1249 1081 1117 1172 1269 1312 1446 1566 1620 1471 1719 1996 1719 1847 1751 1782 1784 1782 1786 1879 1883 1918 2019 2003 2199 1823 2107 2763 2997 3161 3375 3428 3653 3614 3658 3942 4034 4064 3774 3713 4427 4119 3461 3656 3527 3358 3654 3756 4064 3944 3952 3930 3436 2305 3012 2925 3543 3071 2554 3094 2256 1955 2073 1238 1911 1855 933 1244 1303 1547 1492 1361 1435 1742
34 150 410 548 747 941 1167 1264 1178 1054 1155 1214 1116 1101 1179 1440 1424 1307 1412 1588 1559 1827 1993 1669 1896 1736 1655 1537 1568 1716 1826 1841 2296 1980 2020 2273 2480 2619 2837 3075 3375 3168 3244 3674 3815 3921 3935 4057 4058 3763 3442 3722 3932 4067 3795 3182 2836 3297 3965 4060 4028 4544 4614 4321 3326 2522 3322 3167 2186 2435 2835 3456 2026 2211 2154 1396 1448 1872 1328 1153 1221 1242 1174 1001 951
15 112 385 539 810 949 1031 1122 1128 1014 1101 1172 1155 1162 1304 1602 1538 1413 1478 1555 1541 1821 1880 1770 1820 1814 1767 1665 1654 1712 1372 1849 2061 2211 2238 2471 2456 2463 2518 2727 3103 3301 3352 3897 4025 3889 3936 3882 3970 3628 3388 3238 3497 3814 3737 3594 3393 3862 4377 4428 4482 4777 4519 3909 3691 3021 3064 2687 2440 2111 2372 2838 2956 2275 1322 928 1158 1080 1303 1030 926 942 812 878 1075
17 66 260 540 794 878 1016 1168 1117 1037 1076 1145 1165 1203 1346 1552 1611 1552 1583 1704 1651 1892 1934 1883 1829 1846 1789 1674 2000 1991 1904 1803 2217 2224 2389 2618 2434 2682 2838 2608 2926 3241 3487 3321 3793 3902 3828 3808 3805 3555 3322 3399 3547 3819 3794 3572 3305 3635 4195 4237 3696 3889 4089 4107 4585 4091 3091 2398 3317 3060 2525 2162 1852 1632 1382 1221 1375 991 807 893 1066 983 744 875 1355
12 52 199 507 696 844 952 1143 1169 1090 1110 1151 1080 1125 1287 1509 1616 1590 1651 1707 1687 1868 1988 2046 1908 1884 1842 1935 2028 2301 2192 2460 2324 2574 2947 3085 2717 2885 3127 3007 2595 2764 2981 3437 3577 3683 3570 3759 3290 3133 3271 3024 3300 3698 3631 3250 3286 3641 3692 3317 3690 3567 3859 3909 4011 4008 3405 3119 2794 3578 4445 2880 2447 1979 1584 1394 1431 1764 1360 1109 898 856 1174 1517 1833
18 49 185 488 637 808 946 1098 1213 1168 1171 1122 1059 1111 1163 1406 1602 1586 1696 1745 1810 1982 2009 2046 1895 1802 1766 1978 2021 2240 2221 2299 2329 2702 2951 3076 2806 2525 2761 2821 2844 2752 2606 2856 3085 3010 3202 3680 3190 3039 3221 3448 3650 3692 3606 2975 2661 2878 3158 3994 4156 3453 3213 3741 3836 4003 3767 4218 2897 3636 3239 1789 2328 1869 1884 2022 1310 1280 1327 873 1063 707 1021 1337 2164
27 57 150 425 682 811 885 1040 1172 1227 1150 1121 1038 1104 1213 1317 1523 1749 1850 1898 1894 1988 2004 1908 1798 1903 1807 1985 2064 2246 2310 2046 2310 2524 2808 2813 2728 2645 2967 2918 2860 2854 3065 2733 2765 2443 3104 3518 3440 3361 3554 3470 3442 3539 3474 3307 2967 2936 3090 3634 3549 3888 4019 3908 3631 3674 3119 3471 2794 2305 2486 1885 2106 2005 1470 1989 2232 1602 1485 1219 1412 1684 1823 1593 1911
28 92 172 388 666 794 788 954 1136 1226 1210 1175 1044 1096 1235 1417 1589 1834 2002 1927 2005 2034 2116 2071 1972 1962 1885 1968 2093 2362 2392 2338 2486 2629 2948 2861 2751 2729 3200 2982 2962 2958 2982 2728 2424 2694 3133 3538 3444 3530 3508 3550 3611 3802 3877 3777 3611 3545 3438 3068 3263 3608 3489 3633 3450 3249 3203 3319 2576 2225 2181 1853 1827 1694 1601 1393 1501 1822 2170 1809 1585 1680 1807 1771 1992
44 122 164 380 550 665 735 902 1024 1112 1116 1124 1086 1171 1331 1388 1627 1630 2062 2073 2208 2160 2118 2180 2036 2082 2036 1958 2015 2287 2338 2409 2425 2264 2487 2779 3026 2927 2296 2284 2880 2661 2560 2891 2719 2426 2737 3093 3484 3348 3556 3588 3844 3887 3862 3862 3862 3606 3469 3393 2874 3695 3719 3942 3715 3194 3397 3570 3322 2918 2132 2009 1994 1859 1615 1609 1459 1480 1662 1471 2122 2012 1608 1516 1933
81 136 194 372 574 707 792 885 941 975 980 1063 1093 1274 1549 1554 1834 1931 2140 2172 2295 2312 2356 2262 2040 2050 2082 1902 1966 1889 1947 2083 2285 2057 2360 2603 2314 2300 2810 2438 2300 2366 2747 3005 3106 3106 3163 3260 3402 3238 3366 3591 3591 3671 3361 3698 4162 3911 3759 3759 3654 3573 3778 3719 3226 2965 2713 3121 3386 3477 3138 2286 2407 2633 2047 1789 1513 1450 1555 1677 2007 2041 1683 1410 1420
100 149 328 490 663 826 913 903 891 931 1007 1034 1113 1381 1492 1622 1888 1960 2052 2097 2208 2434 2440 2358 2260 2050 2188 2078 2025 1973 2122 1988 2514 2771 2767 2388 2508 2534 3017 3231 2650 2772 3041 3156 2941 2948 2979 3175 3238 3184 3539 3395 3376 3424 3513 3245 3925 3666 3793 3708 3625 3450 3740 3782 3428 3093 2896 3204 3215 3520 3442 2708 2614 2502 2316 2167 1933 1791 1898 1858 2048 2068 1915 1693 1526
139 146 348 609 715 793 800 847 845 892 938 1014 1260 1524 1566 1719 1836 1979 1964 1939 2034 2455 2384 2314 2397 2259 2279 2054 2005 2103 2044 1983 1899 2320 2033 2257 2401 2793 2516 2432 2692 3275 2991 2886 2620 3088 3314 3205 2904 2957 3321 3739 3397 3513 3349 3546 4015 3670 3378 3883 3465 3226 3558 3547 3578 3412 3360 2942 2888 3188 3239 3294 3277 3521 2969 2664 3275 3584 2722 2364 1948 1788 2429 2074 2110
315 271 472 641 770 853 823 795 788 914 947 1073 1434 1580 1691 1867 1850 1938 1974 1953 1915 2166 2099 2216 2348 2228 2274 2180 2210 2120 1849 1755 1706 1941 2154 2572 2798 2673 2332 2768 2732 2628 2722 2568 2663 2823 3309 3513 3294 3297 3143 3115 3134 2895 3203 3422 3999 3591 3507 3831 3408 3556 3458 3608 3555 3443 3412 3381 3090 2934 2999 2920 3322 3092 2976 2902 3400 3628 2947 2716 2618 2527 2975 2523 2416
507 180 377 674 814 948 978 863 750 969 1132 1282 1433 1502 1640 1830 1794 1845 1842 1742 1757 1865 1977 2110 2124 1921 1930 2022 2074 2216 2105 2056 1953 2221 2388 2454 2175 2236 2255 2316 2413 2819 3168 3286 3188 2666 2970 3188 3551 3178 3129 3333 3320 2991 3425 3513 3753 3517 3471 3419 3504 3767 3632 3489 3410 3352 3160 3384 3545 3131 3256 3157 3391 3105 3250 2903 3258 3418 3049 2837 3010 3360 2877 2520 2792
742 266 456 618 757 940 1002 941 858 955 1212 1259 1228 1441 1425 1567 1768 1865 1749 1797 1902 1826 2076 2235 2040 1826 1780 2054 2302 2430 2575 2370 2424 2439 2213 2229 2205 2209 2264 2236 2515 2504 2614 2935 2862 2610 2670 2649 2536 2506 2329 2438 2646 2598 2632 3033 3595 3395 3152 3213 3265 3708 3554 3550 3001 3158 3027 3405 3633 3425 3471 3420 3616 3712 3434 3292 3379 3403 3232 2883 2902 3164 3336 2820 3184
893 343 281 498 775 933 977 1033 956 996 1223 1195 1184 1379 1394 1428 1500 1648 1767 1701 1894 1882 2121 2347 2060 2008 2082 2198 2078 2434 2274 2328 2311 2223 2181 2201 2284 2428 2202 2161 2531 2536 2525 2566 2710 2655 2786 2684 2441 2578 2394 2593 3192 3007 2867 3390 3752 3938 3752 3618 3484 3614 3538 3403 3501 3420 3426 3613 3833 3895 3786 3596 3836 3823 3747 3414 3010 3030 3028 3028 3153 3261 2710 3080 3066
1039 654 357 248 527 747 1089 1201 1072 1042 1234 1296 1294 1386 1517 1513 1479 1463 1516 1666 1760 1769 2010 2212 2229 2180 2022 1991 1786 2118 2240 2382 2260 2251 2358 2238 2362 2481 2572 2612 2504 2555 2582 2396 2563 2420 2621 2714 2627 2615 2750 2597 3063 3604 3010 2958 3394 3667 3523 2876 3171 3679 3605 3498 3574 3516 3392 3321 3538 3956 3768 3350 3497 3512 3590 3524 3318 2908 2577 2423 2785 2546 2787 3291 3322
911 930 473 401 528 697 925 1218 1248 1270 1323 1388 1365 1525 1654 1788 1740 1762 1805 1856 1745 1745 1894 2317 2413 2367 2289 1998 1922 2217 2271 2348 2229 2225 2193 2080 2292 2406 2553 2569 2246 2258 2667 2478 2516 2440 2866 3030 2708 2674 3012 2890 3312 3048 2999 3241 3412 3612 3404 2658 2657 3058 3478 3483 3433 3562 3248 3118 3235 3458 3138 3010 2736 2741 3058 3065 3296 2998 2841 2745 2559 2776 2774 2712 3350
956 1049 694 484 555 907 1094 1181 1325 1417 1496 1446 1614 1860 1772 1997 2092 2134 2186 2208 1984 1889 2182 2546 2631 2394 2208 2177 2374 2302 2146 2196 2158 2224 2186 2142 2114 2313 2583 2434 2229 2126 2278 2695 2701 2596 2862 3225 2974 2940 3117 3148 3130 3094 2978 3152 3494 3462 3254 3340 3149 3207 3202 3334 3395 3447 3243 3120 2976 2924 2920 2834 3006 3245 3150 2872 3122 3310 3116 3346 3040 3320 3466 3026 3588
1054 996 660 537 448 534 903 1192 1423 1388 1406 1353 1703 1845 1848 1892 2024 2000 2199 2412 2404 2249 2424 2546 2745 2695 2465 2276 2344 2320 2252 2260 2199 2152 2232 2191 2182 2170 2388 2350 2160 2024 2104 2232 2684 2796 2900 3182 2686 2762 2989 3095 3024 3078 3263 2974 2956 2949 3208 2855 2796 3175 3274 3398 3377 3441 3493 3600 3474 3236 3056 3231 3337 3328 3045 2676 2338 2917 3101 3082 2985 3185 3446 3519 3438
1377 1190 917 780 749 664 844 1056 1196 1322 1371 1175 970 1467 2009 2005 2158 1956 2211 2612 2634 2617 2673 2660 2576 2461 2792 2614 2512 2417 2336 2372 2314 2269 2266 2186 2096 2097 2175 2266 2138 2104 2236 2094 2186 2411 2500 2952 2898 2820 2865 3005 3124 3228 3290 3211 2750 2719 2901 2819 2834 3190 3090 3253 3359 3348 3494 3568 3464 3465 3394 3478 3425 3437 3179 2930 3308 3242 3256 3104 2984 2943 3068 3466 3777
1066 1138 1038 1044 1126 1056 1273 1387 1413 1337 1382 1544 1792 1844 1823 1748 2086 1949 1985 2544 2767 2847 2855 2828 2607 2440 2635 2607 2564 2790 2821 2607 2542 2430 2324 2247 2103 2004 1986 2014 2081 2097 2095 1915 1866 2242 2487 2576 2894 2856 2685 2869 3112 2967 3224 3340 3051 2837 2870 2900 2712 2997 3107 3125 3343 3234 3205 3207 3286 3258 3214 3300 3304 3364 3366 3316 3376 3226 3050 3009 3100 3163 3183 3376 3289
1075 1264 1259 1158 1120 1221 1404 1377 1368 1180 1059 934 1449 1530 1677 1722 1696 1650 1882 2009 2017 2992 2979 2767 2653 2648 2621 2609 2620 2727 2706 2823 2746 2783 2734 2504 2298 2139 2162 2112 2210 2223 2106 1834 1662 1810 2249 2359 2592 2732 2792 2907 3198 3092 3299 3357 3071 2917 2905 2947 2936 2989 2902 2429 2047 2234 2348 2593 3070 3152 3032 3063 3206 3299 3374 3566 3589 3236 3428 3258 3261 3294 3438 3342 3011
1281 1135 981 1014 1089 1102 970 1167 1198 1105 1031 986 1116 1474 1685 1589 1453 1282 1211 1448 2171 1938 2093 2746 2788 2950 3057 3125 3042 2842 2534 2584 2779 2790 2526 2487 2618 2635 2590 2604 2589 2474 2175 2063 2001 1844 2018 2266 2368 2670 2778 2798 2702 2841 2836 2973 3091 3158 3005 2670 2572 2617 1841 1825 2420 2292 2267 2600 2693 3006 3150 3086 3207 3688 3915 3890 3667 3613 3317 3249 3408 3664 3692 3438 3315
1363 1214 1068 1125 1056 908 788 1026 1160 1164 1324 1043 971 933 1177 1511 1581 1322 1072 1382 1594 1688 1625 1169 2334 2918 3176 2972 2904 2816 2682 2588 2307 2415 2645 2684 2546 2460 2364 2463 2516 2523 2496 2441 2406 2405 2315 2327 2472 2720 2828 2757 2577 2568 2769 2531 2648 2869 2590 2004 2064 2361 2688 2747 3024 2693 2572 2794 2507 3096 2923 3089 3276 3510 3853 4170 4203 4036 3590 3061 2903 3325 3804 3165 3229
1274 1316 1244 1222 1106 994 929 941 955 1136 1184 1106 997 929 1040 1361 1736 1601 1358 1498 1180 1214 1328 1369 1163 1336 2439 2696 3053 2898 2524 2412 2420 2688 2979 2716 2435 2251 2221 2321 2399 2462 2513 2636 2530 2462 2346 2283 2280 2451 2682 2596 2190 2164 2458 2045 1738 1736 2549 2212 2121 2348 2853 3181 2885 2971 3227 2972 3139 3135 3171 2996 3342 3495 3556 3882 4042 4096 4417 4028 3503 3196 3188 3104 3165
1212 1258 1146 1088 1098 1119 1103 1019 942 1050 985 976 1028 1102 1116 1064 1222 1315 1327 1700 1510 1336 1358 1090 1131 1436 1917 2239 2294 2211 2254 2287 2287 2438 2588 2740 2450 2140 2200 2280 2179 2224 2529 2201 2205 2305 2440 2294 2257 2252 2306 2320 2205 1985 1727 1462 1134 1122 1870 2360 2467 2340 1883 2311 2755 3123 3299 3177 3190 3012 2912 2706 2717 2831 2746 2814 3402 3571 3433 4036 4595 4239 3684 3188 3115
1011 914 974 876 852 837 871 895 920 933 876 959 1105 1148 1089 981 1104 1402 1633 1261 1452 1446 1122 970 1048 1628 1748 1599 1589 1632 1804 1945 2009 2309 2229 2274 2229 2214 2231 2185 2089 2364 2579 2498 2498 2224 2306 2431 2128 2251 2119 2129 2118 1884 1548 1284 1235 1402 1547 1808 2414 2430 2789 3035 2947 3239 3158 3418 3455 3234 2976 2734 2618 2592 2847 2808 3143 3626 3716 3201 3222 3672 4633 3575 2622
768 745 747 756 725 711 730 734 723 807 710 748 893 1037 1153 1228 1342 1394 1217 1052 914 824 824 822 960 1051 1230 1155 1188 1202 1445 1605 1696 1775 2012 2103 2114 2156 2223 2122 1986 2157 2128 2107 2015 2052 2021 2249 2046 2162 2286 2050 2192 1613 1410 1236 1222 1274 1369 1529 2354 2981 3409 3258 3148 3124 3129 3167 3356 3325 3259 3283 3090 3019 3092 2965 2966 3165 3416 3558 3435 3696 2254 1891 2206
731 676 724 613 733 595 615 618 588 629 676 650 827 858 918 1032 798 706 681 791 826 879 883 804 893 1042 1119 999 895 1262 1546 1580 1486 1652 1859 2035 2037 2099 1742 1732 1913 2022 1916 2072 1961 1885 1944 1904 1788 1780 1985 1949 1402 1124 1018 1051 1127 1224 1278 1359 1730 2752 3486 3488 3357 3296 3477 3393 3476 3519 3476 3246 3139 3238 3330 3069 2706 2625 3003 2957 2856 1562 1792 1924 1704
601 573 517 494 478 471 492 521 496 518 574 691 738 779 735 788 824 897 633 592 570 612 701 824 910 966 965 872 834 1080 986 1289 1324 1382 1583 1663 1632 1620 1547 1548 2016 2198 2145 1983 1836 1842 1839 1707 1667 1598 1686 683 668 743 808 897 963 1040 1134 1211 1579 2272 2856 3053 3183 3359 3481 3574 3491 3331 3310 3062 2824 2647 3188 1936 1722 2426 2663 2713 1788 1280 1413 1807 1439
532 450 434 431 453 495 460 486 527 478 488 444 369 440 665 618 608 574 551 585 547 439 438 700 888 947 1054 1004 841 766 932 908 1058 1173 1251 1253 1282 1278 1196 1046 1270 1427 1482 1844 1888 1717 1667 1714 1608 1606 1283 525 452 520 554 615 704 816 932 1066 1419 1631 2002 2248 2376 2624 2842 2960 2880 2825 2952 2707 2629 2792 2400 1448 1249 1103 2068 2750 1546 1338 1489 1514 1330
389 342 298 323 363 417 470 450 430 437 376 399 426 412 360 400 366 382 435 460 585 520 482 394 602 892 885 693 693 840 801 766 924 900 911 884 762 808 625 542 1056 1160 1338 1690 1604 1178 1060 1054 1045 995 838 654 483 402 357 423 476 509 540 923 1387 1573 1849 2002 2034 2133 2249 2279 2185 1752 1754 1926 2158 2705 1574 970 738 866 1954 2738 2345 2112 1651 1401 1311
220 214 193 178 232 228 224 361 446 497 372 360 348 312 274 336 340 362 353 370 468 507 574 557 514 526 438 453 612 627 620 669 590 598 524 527 491 588 768 903 886 1071 980 1009 1385 1375 1489 1496 1463 1406 1340 1255 1153 1019 836 641 506 547 560 783 859 1246 1383 1604 1733 1841 1868 1911 1619 1654 1232 1513 1915 1965 1449 1102 880 583 523 1560 2453 2423 2476 2485 2189
155 134 126 130 172 234 202 228 255 350 323 368 376 383 350 280 383 248 262 288 266 347 406 423 477 542 570 593 620 658 720 782 726 736 730 597 614 754 895 1021 962 950 961 914 1024 1072 1131 1128 1168 1237 1216 1210 1143 1086 989 876 711 621 625 622 643 897 1074 1199 1286 1061 1000 1386 1190 1144 725 655 709 916 980 1066 984 840 542 962 1554 2192 2307 2643 2089
155 150 157 159 166 201 223 223 209 237 235 215 248 336 396 178 216 269 293 252 381 364 262 280 291 382 409 408 457 506 623 590 495 492 584 563 562 705 820 877 929 778 631 549 629 589 572 538 496 534 601 732 848 916 904 844 798 800 794 795 783 770 733 716 838 1125 1091 791 837 715 622 530 518 646 674 852 968 913 772 1450 1941 2331 2251 2283 1313
150 168 185 172 168 206 215 203 170 158 144 86 100 153 175 206 289 196 93 217 21 75 34 224 14 152 256 185 395 320 353 289 282 329 405 532 588 671 693 645 623 591 632 658 690 706 721 722 717 713 606 604 628 666 777 848 923 930 900 882 893 902 885 856 819 827 955 968 845 819 798 733 601 452 339 666 868 870 820 816 2072 1108 1182 1313 1403
167 162 207 189 140 117 97 103 90 120 110 0 55 62 89 73 132 13 29 30 24 47 129 180 157 124 95 55 53 105 200 125 128 215 267 256 312 444 510 514 542 470 439 527 596 661 671 682 670 676 687 675 655 608 551 524 575 654 612 654 697 725 717 674 628 611 569 557 546 552 567 614 673 639 570 565 719 820 884 929 907 926 844 809 1087
163 164 130 131 151 129 95 80 92 119 146 134 107 0 0 46 35 36 28 10 22 110 73 69 105 66 24 35 44 85 63 25 53 110 129 218 218 188 188 190 184 240 308 360 391 426 435 444 483 545 505 460 453 444 398 466 503 566 625 558 518 485 475 477 469 436 411 380 363 312 267 276 371 504 507 547 712 828 936 943 981 964 746 652 795
116 106 105 99 109 122 128 109 91 56 4 66 94 0 0 0 6 54 29 24 109 15 4 30 23 6 18 39 42 7 34 75 36 55 13 52 123 138 104 123 156 185 210 223 242 251 274 310 340 368 407 409 351 312 377 483 557 513 451 417 381 339 299 261 263 293 292 267 237 203 189 225 290 415 427 378 389 542 602 816 966 1032 870 701 700
74 79 66 47 0 64 65 65 79 73 56 4 0 0 0 1 8 19 40 30 19 27 42 2 1 3 3 4 0 8 5 0 0 1 4 12 14 29 22 46 45 102 178 220 222 240 269 283 307 312 306 287 254 278 394 418 450 428 387 341 321 297 250 208 172 156 160 182 179 111 0 66 181 255 250 230 210 252 221 373 470 621 763 758 484
12 49 36 2 17 48 50 0 0 0 0 0 0 0 0 2 3 1 10 34 24 8 4 0 0 0 0 1 0 9 9 2 0 0 0 0 2 6 0 0 3 6 12 11 15 88 90 103 151 121 112 73 169 196 217 217 216 224 217 184 182 187 178 164 160 150 146 144 135 31 0 20 19 20 67 145 165 170 186 233 220 284 498 632 431
21 15 14 2 0 0 0 0 0 0 0 0 0 0 0 0 0 0 3 6 3 0 0 0 0 0 0 0 0 0 0 0 0 1 0 0 2 0 0 0 0 0 0 0 0 0 0 0 0 0 0 0 0 0 152 150 90 156 165 154 141 123 42 0 0 12 0 0 1 0 0 1 1 1 0 0 80 84 3 28 112 167 261 377 316
48 68 62 25 1 0 0 0 0 0 0 0 0 0 0 0 0 22 196 103 20 6 3 0 0 0 0 0 0 0 0 0 0 0 0 0 0 0 0 0 0 0 0 0 0 0 0 0 0 0 67 80 79 84 92 92 83 80 88 94 94 94 85 77 0 0 0 0 0 0 0 0 0 2 5 5 1 1 0 0 3 2 74 173 202
45 46 43 8 1 0 0 0 0 0 0 0 0 0 0 0 0 0 32 64 37 2 0 0 0 0 0 0 0 0 0 0 0 0 0 0 0 0 0 0 0 0 0 0 0 0 0 0 0 0 0 0 23 0 0 0 0 0 0 0 0 0 0 0 0 0 0 0 0 0 0 0 14 0 48 1 1 1 1 1 3 5 39 33 21
58 10 8 3 1 8 0 0 0 0 0 0 0 0 0 0 0 0 0 6 13 1 0 0 0 0 0 0 0 0 0 0 0 0 0 0 0 0 0 0 0 0 0 0 0 0 0 0 0 0 0 0 0 0 0 0 0 0 0 0 0 0 0 0 0 0 0 0 0 0 0 0 0 0 0 0 0 0 0 0 32 0 1 2 0
Wind_Speed
5 4 2 2 3 2 1 1 1 1 2 3 5 8 9 10 10 12 13 14 13 13 14 15 16 17 18 18 17 18 18 18 18 18 17 16 15 15 15 15 14 14 13 12 12 11 11 10 9 8 7 7 8 8 9 10 9 10 11 10 11 10 9 10 8 9 8 5 5 6 4 2 2 1 0 2 3 5 7 8 9 11 13 15 15
nan 7 4 3 4 3 2 2 2 2 2 3 6 8 10 11 12 12 13 15 15 14 14 14 15 16 16 17 16 16 16 17 17 17 16 15 14 14 14 13 12 12 11 11 10 10 8 7 7 6 5 6 7 7 8 9 9 10 11 9 7 9 9 12 11 9 5 6 7 7 5 3 1 1 1 2 3 4 5 7 9 10 12 14 14
nan 5 4 3 2 2 3 2 1 0 1 3 5 7 9 11 13 12 13 15 16 15 15 15 14 15 16 15 15 14 16 16 15 15 15 14 13 13 12 11 10 10 9 8 8 8 7 6 6 5 5 5 6 6 8 9 9 10 11 10 8 5 8 9 11 11 7 5 4 4 4 3 3 2 2 1 2 2 3 6 7 9 11 12 12
nan 5 4 4 2 3 4 3 3 3 2 3 4 6 8 11 12 12 13 14 16 16 15 15 15 15 17 15 15 15 14 15 15 14 13 13 11 10 10 9 9 8 8 8 7 7 6 6 6 5 5 5 5 6 7 8 10 10 11 10 9 8 7 8 10 9 8 5 4 4 3 2 1 3 1 1 2 2 2 5 7 9 10 11 12
nan 6 6 5 3 3 3 3 4 3 1 3 4 5 8 9 11 11 12 13 14 14 14 13 13 13 14 15 14 13 13 12 12 11 10 10 9 8 7 7 7 7 7 7 7 6 6 6 6 6 5 5 5 5 6 8 10 10 10 10 10 10 8 7 7 8 6 6 3 1 2 2 2 3 2 0 0 2 2 4 7 8 9 9 10
nan 6 6 5 3 3 4 4 4 3 3 3 5 5 6 8 9 11 12 13 12 12 12 12 12 11 10 11 11 11 10 10 9 8 7 7 8 7 6 6 6 6 5 5 5 6 6 6 6 6 5 5 5 6 6 7 7 10 10 10 10 9 9 7 4 5 6 5 4 2 3 5 2 3 2 2 1 2 3 5 6 7 8 9 10
nan 5 6 5 5 4 4 4 3 2 3 3 4 5 6 7 9 10 11 12 12 11 10 12 11 11 10 10 10 10 9 9 9 8 7 7 7 6 5 5 5 5 4 3 4 5 6 6 6 6 5 5 5 5 5 7 7 8 8 8 9 9 8 6 5 4 3 3 3 3 2 1 1 0 2 1 1 5 4 5 8 7 7 8 9
nan 5 4 3 3 4 3 3 4 3 4 4 4 5 5 6 7 9 12 12 12 11 9 10 10 10 9 9 9 9 8 7 7 7 6 6 6 6 5 4 4 5 4 3 4 4 5 5 6 6 5 4 5 5 5 6 6 6 7 7 7 7 7 6 6 4 3 4 5 4 5 5 2 1 1 1 2 3 7 9 10 8 9 10 9
nan nan 3 3 4 4 5 4 4 5 6 5 4 5 5 6 7 8 10 11 11 9 9 8 9 8 8 7 7 7 7 6 4 4 4 4 5 4 4 4 3 4 5 5 4 4 5 5 5 6 5 4 4 4 4 4 6 6 6 5 5 5 6 6 5 5 5 6 4 4 4 5 5 5 5 4 4 4 7 9 8 9 11 11 9
nan nan 4 3 4 6 5 6 7 7 7 7 6 6 6 7 7 7 8 10 10 8 8 7 6 7 6 6 5 5 4 3 2 1 2 2 4 4 3 4 4 4 5 6 5 5 5 5 5 5 5 4 4 4 4 4 4 5 6 6 5 5 5 5 5 5 6 6 6 4 4 4 4 4 5 5 6 5 5 6 8 9 11 10 10
nan nan 6 5 6 7 8 7 7 9 9 7 6 6 6 6 6 6 6 9 8 7 6 5 5 5 6 5 4 4 2 1 0 1 2 2 3 4 3 4 5 6 6 5 6 6 5 5 5 4 4 3 4 3 4 4 3 4 5 5 5 5 5 6 5 5 6 5 6 5 3 4 5 5 5 4 4 6 6 8 10 10 9 10 9
nan nan 9 9 10 10 9 8 9 8 8 7 7 8 7 7 6 6 7 8 8 7 6 6 6 5 4 3 3 3 1 1 1 2 2 3 3 3 3 4 5 6 6 6 6 6 5 5 5 4 3 3 3 3 4 4 4 4 4 5 4 5 5 5 5 5 5 6 5 6 5 5 6 5 6 7 7 7 8 10 10 10 12 11 10
nan nan 13 12 11 11 9 10 11 9 8 7 6 7 8 7 6 6 7 8 8 8 7 6 6 5 4 3 2 3 2 1 1 2 2 2 3 3 2 3 5 6 6 7 6 6 6 6 5 4 3 3 4 3 3 4 3 4 4 4 4 4 4 4 3 3 4 5 5 6 6 7 8 7 7 7 9 9 9 9 9 9 9 9 8
nan 14 14 13 11 10 9 10 10 8 7 7 7 8 9 9 7 5 7 8 9 9 8 7 6 6 5 5 5 5 2 1 0 1 2 2 2 3 3 3 3 5 6 6 5 5 5 5 4 4 3 3 3 3 4 3 3 3 3 3 3 4 4 3 2 2 2 3 4 5 5 7 7 7 7 7 8 9 8 7 8 8 7 6 7
nan 17 14 14 12 11 11 11 10 8 7 8 9 8 10 10 9 7 7 8 8 9 9 7 8 7 7 7 7 6 3 2 2 2 1 1 2 3 2 2 2 3 4 5 4 4 5 4 3 3 3 2 2 2 3 2 2 2 2 3 4 3 3 3 2 1 2 3 3 4 3 5 5 6 5 5 5 5 5 5 5 4 5 4 6
21 17 15 14 14 13 14 13 12 10 9 9 8 10 10 10 10 8 8 8 8 9 9 8 8 8 8 7 6 5 6 4 5 5 4 2 1 2 2 2 1 1 1 2 3 3 4 4 4 3 3 3 2 2 2 2 2 1 1 2 2 3 3 2 1 1 1 2 3 3 2 2 3 2 2 3 3 4 4 4 5 5 4 3 4
24 18 16 15 16 14 13 13 13 12 11 10 10 11 10 11 11 10 9 10 9 8 8 8 9 9 8 7 6 6 5 3 4 3 1 1 1 1 2 2 1 0 1 1 2 2 3 4 5 5 4 4 4 3 3 3 3 2 2 2 2 2 3 2 2 2 2 3 3 3 3 2 2 2 2 3 4 3 3 4 4 4 5 4 3
26 20 17 15 14 13 14 13 12 12 11 10 10 11 13 13 11 10 10 10 9 10 9 9 9 8 8 7 7 6 5 4 4 4 3 4 3 3 2 2 1 1 1 2 2 2 3 3 4 4 5 5 5 5 4 4 4 3 3 3 3 4 3 3 2 2 2 3 3 3 3 2 3 2 3 3 4 3 3 3 4 4 5 4 3
22 18 17 15 14 13 14 13 11 12 13 13 12 12 14 15 14 12 9 9 10 11 10 11 9 10 10 8 7 7 7 6 6 6 6 6 4 3 2 2 2 2 2 2 2 2 2 3 3 4 4 4 4 4 4 4 3 3 4 3 3 3 3 2 2 2 1 2 2 3 3 3 3 2 2 2 3 2 2 1 2 3 4 4 3
21 20 18 14 12 11 12 13 13 13 14 15 14 14 11 13 15 14 12 13 11 10 11 11 11 11 11 11 10 10 9 8 8 8 7 6 5 5 4 3 2 4 3 2 2 2 2 2 2 3 4 4 5 5 4 3 3 3 4 4 4 3 2 2 1 1 1 2 2 2 3 3 3 2 1 1 2 1 1 2 2 1 3 3 3
26 23 20 18 16 14 14 15 15 15 16 17 15 13 12 13 13 14 13 12 11 11 12 13 14 13 13 12 11 12 10 10 8 9 8 8 7 7 6 5 6 5 5 4 4 3 2 3 3 4 4 4 5 6 5 5 4 3 3 3 3 2 2 1 1 1 1 1 1 1 1 2 2 1 1 1 0 1 1 1 1 2 3 4 4
28 26 23 23 21 19 20 21 20 18 17 16 15 15 13 12 13 14 14 13 13 13 14 16 16 15 13 13 12 13 12 12 11 11 10 10 9 9 9 9 8 7 7 5 5 5 4 3 3 3 4 4 4 4 5 5 5 4 3 3 2 2 2 1 1 1 2 2 1 1 0 1 2 0 1 1 1 2 2 2 1 1 2 4 5
27 30 30 26 23 23 21 20 19 17 15 14 14 13 12 12 13 15 15 15 15 16 17 19 18 17 14 14 14 15 15 13 12 13 12 11 12 11 12 11 10 10 9 8 7 6 7 6 5 5 5 5 4 4 4 4 4 4 4 4 4 4 3 2 1 1 1 2 1 1 1 1 1 1 1 2 2 2 2 2 2 0 1 3 5
19 25 34 38 36 31 28 22 20 19 17 15 15 14 13 13 13 14 15 17 18 19 20 20 18 17 15 15 16 16 15 15 15 16 15 14 14 14 14 13 12 12 11 11 10 9 9 9 7 7 6 5 5 4 4 4 3 3 3 4 4 4 4 3 2 3 3 3 2 2 2 1 1 0 0 1 2 2 1 1 1 2 2 2 4
13 16 27 40 41 34 32 30 28 26 24 21 22 19 15 12 12 12 14 17 19 19 19 19 19 19 17 16 17 18 17 17 17 19 17 16 16 16 17 15 15 13 13 13 13 12 11 11 10 8 7 7 6 6 5 5 5 4 3 3 3 3 3 3 3 3 4 3 3 3 2 2 2 1 1 1 1 2 1 1 1 2 3 3 4
17 16 20 30 36 37 35 33 33 32 30 28 25 22 21 18 15 14 14 16 17 18 18 19 19 19 20 19 19 20 19 18 19 19 19 18 18 17 17 17 16 15 14 14 14 14 14 13 11 9 8 8 8 8 8 6 5 5 4 3 3 3 3 4 4 4 4 4 4 4 3 2 1 1 1 2 2 1 0 0 1 1 3 4 4
17 16 15 18 23 26 28 28 27 27 26 27 27 25 25 26 26 24 21 19 18 18 19 20 19 19 20 19 19 20 22 22 21 21 20 20 19 19 19 19 19 17 17 17 17 16 17 15 14 13 11 11 10 10 10 8 7 6 5 3 3 3 4 5 6 5 5 5 5 4 4 3 2 2 2 2 3 2 2 1 2 2 4 4 3
13 14 14 16 18 19 20 21 23 24 24 24 26 27 27 27 28 28 27 24 22 20 19 20 20 20 20 19 20 22 21 23 24 23 22 21 21 20 21 21 22 21 20 19 19 19 19 18 17 16 15 15 14 13 11 10 8 7 6 5 3 5 10 11 9 9 8 7 6 6 4 4 4 3 4 4 3 3 4 3 5 5 6 6 4
11 11 11 12 13 15 18 21 24 24 23 23 26 28 28 28 27 26 26 24 27 24 20 19 20 21 20 21 22 24 23 24 25 24 21 21 22 23 24 24 24 23 23 22 21 21 21 20 20 19 18 17 17 16 15 12 11 8 8 9 6 13 10 11 10 8 7 7 8 7 6 5 6 5 4 4 4 6 6 5 6 7 7 7 7
11 10 10 10 14 19 20 22 23 23 24 24 24 27 29 30 29 27 26 28 29 26 25 23 22 19 21 20 22 25 25 25 26 25 24 25 24 25 25 25 25 25 25 25 24 23 22 22 22 21 20 19 18 19 18 14 12 13 15 12 10 10 12 13 13 11 10 9 8 9 8 6 5 5 4 4 5 5 5 4 6 9 9 9 8
14 11 11 11 11 14 16 17 19 20 23 25 26 28 32 34 33 31 28 30 30 30 31 31 26 24 22 22 25 25 26 27 28 29 30 28 26 27 27 27 27 27 27 28 26 24 24 24 23 22 21 20 20 20 24 22 16 14 17 16 14 13 13 13 15 15 12 11 11 11 10 8 9 8 7 7 6 6 7 7 5 5 8 10 11
20 17 16 15 14 13 12 13 15 17 18 20 22 24 25 27 32 34 34 35 33 32 31 31 32 31 28 29 26 26 25 26 27 27 28 30 30 30 29 28 27 28 30 29 27 27 26 25 25 23 22 21 20 20 20 16 15 15 16 16 16 17 17 16 17 16 16 14 13 12 12 12 12 11 10 10 10 9 9 9 9 9 10 10 11
24 21 20 20 19 18 17 15 14 14 14 15 16 18 19 21 24 27 34 35 35 33 31 34 38 38 39 36 36 33 28 27 27 28 29 29 29 28 29 29 28 29 31 31 30 29 29 28 26 25 23 23 21 25 21 21 21 19 18 16 17 17 18 19 19 18 17 17 16 15 14 14 15 14 13 12 12 13 14 14 13 14 12 16 25
28 26 24 23 22 22 20 18 17 16 15 13 13 14 16 19 21 23 25 30 34 36 36 38 39 38 38 35 30 34 36 31 29 30 30 29 28 28 29 29 30 31 31 32 31 30 30 29 27 26 25 24 26 36 32 30 29 29 27 22 19 18 19 18 19 19 19 19 18 17 16 16 16 16 17 16 15 14 15 16 18 20 28 29 30
32 31 29 29 28 27 25 21 19 17 15 15 13 14 14 16 18 22 23 25 27 31 36 40 40 41 42 38 37 39 40 38 36 37 35 32 29 31 31 31 30 31 32 33 32 32 32 30 28 27 26 27 33 33 33 30 30 29 29 25 23 22 21 20 20 19 19 19 19 19 18 17 18 18 19 20 18 18 18 20 23 28 27 23 27
34 34 32 31 31 31 31 30 29 28 24 19 15 14 13 14 18 21 24 25 27 29 33 34 39 45 47 45 44 47 48 48 45 42 38 34 31 31 31 31 31 34 36 36 35 34 34 33 32 29 29 31 32 32 31 31 30 29 27 26 25 24 22 21 20 21 21 22 21 21 20 19 19 19 22 26 23 23 22 23 29 27 23 25 29
37 36 34 30 29 30 29 29 30 32 32 29 24 19 16 17 18 21 24 25 28 30 32 32 34 38 41 43 46 49 51 49 46 43 41 40 38 36 34 31 31 33 34 35 36 36 36 35 33 31 30 31 31 32 31 30 29 27 25 26 26 25 24 22 21 22 23 23 23 23 23 21 21 20 31 32 29 25 24 27 31 25 28 29 28
40 37 34 32 31 31 32 32 33 36 37 34 32 30 21 22 23 26 29 30 31 31 31 32 33 33 39 44 46 48 50 48 46 44 42 40 38 36 32 29 33 35 32 32 36 39 38 35 33 33 31 31 33 34 32 31 30 28 24 25 25 24 24 23 23 24 24 24 23 22 21 20 21 22 32 28 27 24 24 27 28 28 29 30 28
39 36 33 34 34 34 33 34 33 34 34 36 38 37 35 31 32 36 35 31 28 28 26 26 28 29 32 39 43 45 45 45 45 44 41 39 38 38 35 33 37 37 34 32 36 40 40 39 38 36 38 36 34 35 36 33 32 31 28 26 25 24 24 24 23 22 22 22 21 22 27 25 23 28 30 25 25 27 24 24 26 28 29 29 32
37 35 33 32 32 32 33 31 31 29 31 36 40 42 43 37 33 32 32 26 23 24 24 23 24 25 25 30 36 41 43 44 47 47 45 43 42 40 38 37 37 37 36 35 36 39 40 41 40 39 37 37 37 37 37 36 37 37 35 30 28 24 22 22 22 22 21 22 22 23 29 33 30 29 29 29 27 28 28 25 27 26 26 27 32
36 32 30 30 29 29 30 28 26 26 30 34 39 42 44 37 30 30 35 31 24 23 24 27 29 28 28 28 28 31 35 39 42 44 43 43 44 45 44 43 42 40 37 35 37 39 41 42 42 41 40 39 38 40 42 42 44 44 43 38 34 32 29 27 26 26 25 24 24 25 29 34 35 35 37 38 35 30 26 28 30 31 32 34 37
36 34 33 32 31 30 29 28 27 27 27 nan 35 39 42 43 44 42 nan 34 nan nan nan 30 nan 29 29 29 28 27 29 33 37 41 43 44 46 47 47 47 47 48 48 44 41 41 42 42 41 42 43 41 42 44 39 42 45 48 49 47 40 38 34 32 31 29 29 29 29 28 29 36 37 37 37 38 38 39 38 33 33 36 38 40 37
36 36 37 37 37 37 nan 34 nan 31 28 nan nan nan nan nan 45 nan nan nan nan nan 29 29 27 27 nan nan nan 28 26 27 31 34 38 41 42 44 47 49 50 50 49 47 45 44 44 42 41 42 41 39 36 35 36 35 40 44 46 45 42 38 34 37 36 36 36 35 34 34 37 41 37 34 31 31 30 31 33 39 41 44 43 43 43
38 39 39 41 41 40 nan nan nan 33 29 26 26 nan nan nan nan nan nan nan nan 31 nan nan 28 nan nan nan nan nan nan nan nan 25 27 31 33 33 36 40 45 50 52 52 50 48 46 46 45 42 38 35 33 30 30 31 32 36 40 41 39 38 38 36 36 35 33 33 33 32 33 34 37 33 30 28 28 28 28 28 31 34 36 41 41
40 41 40 nan 40 41 40 38 nan nan nan nan nan nan nan nan nan nan nan nan 32 nan nan nan nan nan nan nan nan nan nan nan nan nan nan nan 27 25 25 26 30 36 42 45 45 45 45 44 41 39 36 34 30 27 25 26 27 29 33 35 33 34 35 33 31 30 29 30 33 30 29 33 35 31 27 24 26 27 27 25 22 24 28 32 32
nan nan nan nan nan nan nan nan nan nan nan nan nan nan nan nan nan nan nan nan nan nan nan nan nan nan nan nan nan nan nan nan nan nan nan nan nan nan nan nan nan 21 23 26 29 31 33 35 34 32 30 29 28 26 26 25 24 25 27 29 29 31 32 30 30 30 30 29 28 27 nan nan 29 30 26 24 24 28 29 27 22 21 26 27 25
nan nan nan nan nan nan nan nan nan nan nan nan nan nan nan nan nan nan nan nan nan nan nan nan nan nan nan nan nan nan nan nan nan nan nan nan nan nan nan nan nan nan nan nan nan nan nan 26 27 26 24 nan 25 26 26 26 26 25 25 25 25 26 28 27 28 29 28 28 28 nan nan nan nan nan nan 30 29 30 29 28 26 25 26 25 26
nan nan nan nan nan nan nan nan nan nan nan nan nan nan nan nan nan nan nan nan nan nan nan nan nan nan nan nan nan nan nan nan nan nan nan nan nan nan nan nan nan nan nan nan nan nan nan nan nan nan nan nan nan nan 27 27 nan 27 25 25 26 26 nan nan nan nan nan nan nan nan nan nan nan nan nan nan nan nan nan nan 28 27 27 25 25
nan nan nan nan nan nan nan nan nan nan nan nan nan nan nan nan nan nan 31 31 nan nan nan nan nan nan nan nan nan nan nan nan nan nan nan nan nan nan nan nan nan nan nan nan nan nan nan nan nan nan nan nan nan nan nan nan nan nan nan nan nan nan nan nan nan nan nan nan nan nan nan nan nan nan nan nan nan nan nan nan nan nan nan 24 27
nan nan nan nan nan nan nan nan nan nan nan nan nan nan nan nan nan nan nan nan nan nan nan nan nan nan nan nan nan nan nan nan nan nan nan nan nan nan nan nan nan nan nan nan nan nan nan nan nan nan nan nan nan nan nan nan nan nan nan nan nan nan nan nan nan nan nan nan nan nan nan nan nan nan nan nan nan nan nan nan nan nan nan nan nan
nan nan nan nan nan nan nan nan nan nan nan nan nan nan nan nan nan nan nan nan nan nan nan nan nan nan nan nan nan nan nan nan nan nan nan nan nan nan nan nan nan nan nan nan nan nan nan nan nan nan nan nan nan nan nan nan nan nan nan nan nan nan nan nan nan nan nan nan nan nan nan nan nan nan nan nan nan nan nan nan nan nan nan nan nan
Wind_Direction
189 192 199 131 117 147 201 255 310 5 28 53 74 83 93 102 103 100 102 100 100 98 98 101 104 108 111 110 111 112 113 114 112 110 108 107 108 108 109 111 113 117 120 122 125 128 132 138 141 147 156 158 157 162 163 156 153 145 139 137 148 152 151 144 156 147 144 148 167 167 171 200 205 241 256 7 3 10 12 15 5 11 14 21 22
nan 212 204 197 153 143 181 223 320 355 61 51 78 88 98 102 104 109 111 108 107 104 103 101 105 107 109 110 114 114 113 112 113 111 109 110 110 111 111 115 116 118 122 123 126 127 130 133 140 153 160 162 161 157 150 148 151 153 151 149 152 156 154 154 161 143 154 163 163 172 184 195 226 108 35 4 40 21 22 17 12 18 16 19 19
nan 194 215 198 155 126 153 199 242 255 93 79 90 96 105 112 114 119 118 113 114 114 115 111 109 112 114 118 117 119 119 118 118 116 114 113 113 115 118 118 117 118 120 121 123 124 128 134 145 164 163 164 155 153 150 153 159 162 157 163 156 145 146 158 160 156 165 182 191 169 213 192 290 325 335 15 92 77 40 28 23 20 16 21 17
nan 207 203 204 194 147 157 197 222 215 178 117 103 96 117 122 119 122 123 119 122 121 120 120 123 128 130 129 128 126 124 128 129 128 123 120 116 119 122 122 118 120 121 120 124 127 126 134 153 164 167 165 153 150 146 153 163 165 165 170 160 151 158 164 164 170 165 165 169 201 238 205 285 294 273 35 87 67 37 28 18 18 15 22 22
nan 208 199 200 207 149 138 200 226 212 158 113 102 103 127 114 121 122 128 126 128 127 124 130 133 134 137 140 133 136 135 127 124 122 120 120 117 114 111 114 117 121 123 122 125 127 131 140 148 157 164 163 160 146 147 156 164 170 170 167 176 166 165 158 170 172 181 172 182 269 288 309 222 234 168 335 57 7 329 4 353 16 13 20 35
nan 227 218 198 183 178 180 200 219 196 149 122 118 117 124 127 130 134 139 136 132 126 128 131 127 126 127 124 120 118 119 116 109 107 105 102 101 107 107 102 106 112 120 123 126 128 131 143 146 149 157 164 155 153 151 148 160 167 181 169 174 178 161 152 170 179 181 190 184 169 200 220 232 229 134 251 278 302 323 325 334 350 4 18 31
nan 229 235 209 189 203 204 192 193 179 161 170 148 138 132 143 142 141 144 144 141 137 133 134 130 128 117 113 116 117 117 119 122 118 112 107 111 102 103 98 99 101 106 120 133 137 139 144 145 142 152 154 152 145 141 147 166 175 176 173 171 167 162 172 171 170 166 181 224 226 245 266 264 147 208 184 290 310 317 330 331 347 10 23 25
nan 226 252 247 237 228 222 188 177 169 192 192 174 160 145 153 154 148 154 152 149 148 141 137 137 136 127 122 123 120 113 117 111 110 110 108 96 92 94 93 89 102 115 134 136 140 144 144 145 146 143 142 139 141 148 152 162 174 183 177 166 167 168 177 176 179 178 226 229 231 262 270 286 320 304 238 315 320 329 338 345 353 15 10 17
nan nan 224 249 256 247 229 206 176 201 201 191 182 174 171 170 171 165 161 161 159 152 153 144 143 143 136 131 133 132 122 116 113 109 106 94 79 80 89 94 90 97 113 120 134 140 141 146 149 148 143 136 136 140 142 155 156 170 176 180 178 173 173 179 174 184 181 226 228 236 242 268 283 286 298 325 321 334 340 337 347 357 14 12 19
nan nan 236 238 250 248 247 226 213 206 197 195 195 196 194 191 184 181 171 169 170 159 158 155 148 154 143 140 129 137 139 143 130 80 76 69 68 65 79 94 98 98 103 115 124 129 132 137 140 148 146 151 144 155 145 145 153 159 171 175 180 172 185 179 187 201 210 223 237 224 243 266 290 302 312 317 325 331 346 347 348 1 11 11 20
nan nan 227 237 242 244 243 242 231 218 204 203 204 202 204 205 201 193 186 184 182 172 165 161 158 158 152 146 129 131 138 144 59 45 33 40 67 71 79 92 103 107 110 112 110 114 119 127 129 140 151 164 139 136 137 143 160 164 174 179 168 180 191 193 190 206 231 240 262 271 266 273 281 289 289 298 322 337 347 344 356 5 14 11 5
nan nan 221 229 236 242 243 241 239 231 216 209 204 211 212 208 209 211 205 200 193 186 181 172 170 171 167 160 142 150 206 228 20 27 18 33 44 60 89 107 105 108 109 113 112 104 115 121 120 125 129 126 119 127 145 159 165 177 179 181 187 199 197 206 200 210 228 259 265 283 293 299 307 318 311 324 334 329 345 346 349 358 5 5 359
nan nan 223 228 238 250 251 244 238 233 222 218 207 215 220 217 216 216 214 215 206 201 197 192 188 188 194 198 192 212 249 284 357 19 2 29 36 43 53 92 102 104 106 108 102 97 110 113 112 117 119 108 121 134 135 148 167 169 178 174 192 194 213 215 219 214 227 247 266 280 293 301 307 316 324 324 323 339 349 349 343 351 1 357 354
nan 221 225 229 230 235 244 246 246 236 232 226 214 214 221 221 224 215 213 221 220 215 211 209 202 205 213 222 228 235 240 237 186 58 37 40 30 47 53 67 96 101 107 108 115 104 103 107 113 116 128 122 123 129 129 141 157 153 167 172 180 209 216 229 213 209 216 239 255 280 303 310 316 322 328 340 338 346 348 344 342 351 2 348 348
nan 223 224 231 231 233 234 238 237 235 239 235 222 218 220 224 229 226 220 224 226 224 218 216 213 216 218 220 228 228 220 205 172 164 157 84 73 63 53 61 87 114 119 129 123 116 117 124 127 133 139 140 142 141 137 156 169 164 162 168 185 207 200 205 202 175 199 219 241 268 304 331 322 332 339 338 344 352 354 347 358 7 1 360 341
228 224 222 232 239 232 226 230 233 232 239 233 236 228 224 222 227 231 227 227 228 230 221 218 216 220 226 229 229 225 214 201 200 207 195 152 115 85 59 50 94 154 155 144 130 125 125 132 141 143 156 163 171 163 166 185 227 209 208 203 176 223 203 189 192 182 209 228 238 257 293 318 331 334 328 319 332 343 357 355 2 359 355 354 344
221 219 220 232 237 233 227 230 232 235 235 235 237 237 238 229 226 230 228 225 226 230 230 222 220 224 229 233 232 227 217 201 197 214 194 199 184 137 105 88 91 119 148 183 149 187 163 151 151 156 180 190 186 190 194 218 239 246 262 266 235 236 234 205 196 205 211 236 269 271 266 279 293 285 303 307 300 327 352 357 358 355 342 351 353
213 212 217 226 236 240 231 228 237 243 244 239 237 238 239 236 234 235 237 236 228 228 231 230 230 228 228 231 233 229 219 205 203 214 231 236 232 208 184 195 122 114 162 202 220 199 202 191 171 167 169 180 185 185 200 219 236 229 244 253 242 241 238 235 226 204 215 247 255 272 274 279 286 318 312 297 300 330 352 356 358 0 2 11 3
214 208 208 211 221 232 234 235 236 238 240 239 239 240 239 239 235 233 238 244 241 230 231 229 237 230 226 231 235 233 226 221 221 225 226 225 220 226 209 186 173 203 216 238 229 203 207 203 200 166 175 175 176 172 187 202 217 209 219 221 245 255 243 231 237 258 263 268 264 265 276 285 279 283 279 301 289 332 17 23 23 19 15 29 46
218 216 213 210 214 228 239 239 237 237 237 233 235 232 243 248 246 238 231 235 240 242 239 237 241 239 236 236 234 231 231 226 230 233 227 222 217 216 216 216 205 211 198 216 212 193 194 176 183 172 163 167 168 169 170 182 201 198 192 198 211 230 215 227 222 261 285 302 306 299 293 293 285 298 301 282 318 358 59 61 44 10 353 14 34
208 215 216 213 207 211 222 231 234 233 231 233 235 238 242 247 252 252 249 247 249 248 246 239 237 238 243 247 243 237 235 229 229 234 229 228 223 219 216 208 222 217 215 215 219 211 206 196 174 174 164 174 179 168 178 186 197 202 206 192 182 191 192 208 246 136 100 26 4 329 295 287 268 264 290 254 141 80 86 65 358 345 344 339 357
205 210 215 216 208 202 209 218 224 230 234 239 237 236 243 249 251 255 251 245 246 245 242 242 239 236 240 242 244 241 239 234 233 234 233 230 229 229 225 224 222 225 226 223 223 218 223 220 204 186 179 177 180 184 165 179 187 199 195 211 218 216 200 184 181 139 127 135 130 113 183 234 277 233 186 105 117 129 130 111 358 358 329 328 341
208 213 216 220 214 205 207 217 223 229 234 242 242 241 248 253 252 250 251 248 245 243 243 243 243 242 242 240 242 242 242 243 240 234 231 228 231 231 230 226 224 227 235 230 230 226 230 232 223 218 218 204 203 181 186 186 195 201 200 192 198 212 217 203 209 199 169 190 165 169 166 201 241 13 17 67 93 110 134 145 123 301 319 326 329
217 217 213 214 212 206 206 211 216 219 225 234 236 235 239 243 250 253 256 252 247 243 243 246 248 250 251 249 247 244 245 242 242 238 235 231 229 230 232 227 226 226 232 236 233 230 235 238 234 233 235 233 228 217 207 212 217 215 209 207 199 205 208 212 208 202 214 231 224 211 215 227 234 209 72 87 72 84 88 73 76 322 314 314 312
238 233 216 212 214 213 207 206 210 213 216 219 220 226 229 239 249 254 257 258 255 249 246 247 250 252 253 252 252 251 247 245 244 241 243 240 236 234 235 234 233 232 233 236 239 239 238 242 238 238 242 250 248 242 236 224 224 229 230 208 205 213 222 223 211 215 224 229 231 230 238 263 284 276 313 346 17 39 56 42 11 307 313 314 319
225 238 222 211 212 216 218 217 217 218 220 223 222 218 220 224 235 249 259 264 265 259 256 253 251 251 249 249 249 252 254 254 252 248 249 249 247 246 245 245 246 246 247 248 247 246 248 250 249 244 241 247 251 252 248 238 230 233 236 224 221 224 226 233 230 236 246 252 250 243 244 246 233 214 215 246 253 245 264 351 27 281 289 293 310
235 242 239 226 225 233 235 234 232 231 232 232 235 235 232 229 221 218 221 238 250 254 257 258 259 258 253 251 249 250 250 253 255 254 253 254 255 254 254 253 254 253 255 256 258 259 258 258 260 256 248 246 249 251 252 249 242 239 239 241 225 232 232 229 232 237 254 263 257 251 247 241 206 198 197 220 245 266 271 254 259 259 274 283 292
244 248 248 239 235 239 247 249 249 245 246 246 243 244 246 243 239 236 231 226 227 233 247 255 257 257 256 257 253 253 252 250 250 252 253 256 257 256 255 253 252 253 251 252 256 262 263 264 264 261 257 254 254 254 257 256 256 260 269 280 279 247 244 242 233 226 218 230 254 257 250 244 238 226 222 223 233 239 256 262 268 271 270 266 262
256 265 267 263 253 247 245 242 243 248 251 254 250 248 248 246 245 245 243 242 245 240 232 239 253 257 257 256 254 251 250 252 252 250 250 252 254 256 257 256 256 253 250 250 251 253 257 260 261 260 261 261 260 258 256 259 266 283 272 243 230 273 277 262 255 269 272 263 251 264 267 262 258 263 260 248 228 233 240 248 254 264 274 272 266
267 272 267 254 238 236 236 239 245 250 249 249 250 251 251 250 246 244 242 239 244 250 250 239 233 241 250 254 255 252 251 253 254 255 254 254 253 255 257 258 258 257 255 252 249 248 249 251 255 258 260 261 262 262 266 272 261 254 267 265 256 258 264 268 266 259 256 266 278 273 269 272 280 282 281 287 302 312 310 266 245 254 266 267 269
247 262 269 270 261 254 252 251 251 252 252 249 247 244 246 247 244 243 245 244 243 244 245 245 235 225 235 251 255 256 255 255 254 255 255 256 255 253 253 255 255 256 256 255 253 252 251 249 251 254 257 256 255 257 267 274 274 268 261 254 250 253 256 260 264 265 262 259 261 264 260 269 282 287 291 309 301 291 297 309 310 282 257 262 264
239 250 261 270 273 274 273 265 258 256 254 251 250 251 253 255 249 244 242 242 242 242 246 247 246 245 246 251 255 258 261 258 254 254 255 255 254 253 253 253 253 256 255 256 256 255 253 252 251 253 255 255 251 257 270 271 265 266 270 260 254 257 264 259 256 260 260 258 260 261 261 260 263 264 257 264 280 294 293 285 282 288 282 283 267
246 249 254 259 263 265 265 265 266 265 260 258 258 258 262 265 263 255 248 247 244 242 240 241 243 246 249 249 243 247 252 254 255 251 250 252 252 253 255 254 256 255 254 255 255 254 254 253 252 252 252 252 250 258 264 260 257 254 256 254 255 254 253 255 256 259 259 259 258 257 256 257 256 265 267 263 261 264 277 287 281 270 277 258 259
252 252 251 249 252 257 262 262 258 256 261 261 262 264 262 266 273 272 267 259 254 253 252 247 241 239 244 247 251 251 250 248 249 251 250 250 249 249 251 251 251 252 253 253 254 254 253 253 253 254 253 252 252 247 245 249 252 254 257 256 254 252 254 256 258 260 260 260 260 258 256 257 256 259 262 262 262 262 262 265 269 268 261 271 291
252 252 250 249 248 249 253 259 263 266 267 267 271 280 280 280 287 289 287 277 271 270 267 263 254 247 245 243 242 246 247 243 242 246 248 249 250 246 247 248 250 252 253 252 252 254 255 256 255 256 256 256 252 248 250 251 254 256 256 253 250 252 255 257 259 261 262 262 261 259 257 253 253 254 258 260 259 261 262 262 263 265 281 278 271
253 254 253 253 250 247 248 250 251 252 255 256 258 265 282 294 293 293 294 293 288 282 280 275 263 251 246 243 244 244 239 235 236 237 236 243 250 252 250 249 249 250 250 251 250 250 252 253 254 256 258 257 254 252 256 257 256 256 256 255 255 255 254 254 256 257 258 258 259 257 254 252 251 252 257 265 258 256 258 262 262 275 278 274 270
255 257 258 255 251 250 249 250 251 251 252 252 253 258 274 281 291 292 293 296 297 291 285 284 278 266 256 251 250 249 244 239 239 239 238 235 235 237 239 248 250 250 252 254 253 251 248 245 246 251 255 255 253 247 247 253 257 258 260 257 256 256 255 255 254 254 254 254 254 255 253 251 252 254 262 268 266 266 268 270 278 281 272 268 272
258 259 259 258 258 258 256 254 251 249 248 250 252 254 264 282 286 288 283 279 278 278 276 277 281 274 261 251 249 249 247 247 245 242 239 240 239 237 235 236 248 251 249 249 253 254 250 244 244 249 253 255 253 247 243 244 246 246 245 252 254 255 255 254 254 255 255 254 253 251 250 251 254 257 266 271 276 278 279 284 284 280 277 276 274
257 259 261 262 265 265 264 262 258 254 250 250 250 253 255 256 259 259 254 251 255 264 270 276 281 280 269 257 250 248 248 250 250 246 244 244 241 238 236 235 241 243 246 245 247 252 251 243 241 247 249 250 252 249 243 241 242 243 246 253 252 253 253 253 253 253 253 253 251 254 256 254 255 261 269 273 274 271 261 266 276 277 275 276 277
258 262 268 272 270 266 261 262 261 260 256 251 251 251 250 252 256 261 258 256 256 259 267 273 276 279 276 267 261 258 254 251 249 246 245 245 243 240 237 235 239 241 239 239 243 247 247 242 242 246 249 250 251 249 244 242 244 245 243 250 253 252 251 250 250 248 249 251 253 255 260 255 251 259 258 258 261 275 280 275 275 276 274 274 274
259 264 270 271 268 266 267 266 265 261 260 254 251 250 247 246 251 259 260 261 259 259 262 266 267 268 271 271 266 259 253 246 244 245 243 240 240 240 238 237 236 239 243 242 243 245 247 246 245 246 249 251 251 251 248 246 247 247 244 246 255 251 251 253 252 252 253 252 255 259 260 263 261 261 262 260 258 259 262 268 271 273 275 274 277
260 263 267 269 267 265 265 265 263 259 257 nan 254 250 247 246 246 250 nan 262 nan nan nan 266 nan 267 268 267 262 255 253 252 250 248 245 239 239 241 241 240 241 242 243 243 243 243 244 245 244 244 247 250 250 249 253 251 250 247 245 243 249 250 249 252 253 252 251 252 252 255 259 262 265 269 268 266 260 256 252 259 257 249 258 278 281
261 263 265 269 269 266 nan 266 nan 259 255 nan nan nan nan nan 252 nan nan nan nan nan 266 266 264 264 nan nan nan 245 247 247 249 250 248 245 242 242 242 242 243 243 244 244 244 245 246 245 244 244 245 245 244 247 247 255 254 247 242 242 244 248 244 251 251 251 250 251 252 255 258 255 252 252 256 260 259 252 254 255 250 251 247 249 254
265 268 270 271 269 267 nan nan nan 259 255 254 255 nan nan nan nan nan nan nan nan 259 nan nan 260 nan nan nan nan nan nan nan nan 245 243 243 241 241 242 242 242 244 245 244 244 245 244 243 241 240 240 241 243 245 247 246 248 241 235 236 242 248 248 252 253 253 253 254 257 257 260 264 264 260 255 255 261 261 259 250 249 253 257 257 261
269 271 272 nan 269 268 268 268 nan nan nan nan nan nan nan nan nan nan nan nan 258 nan nan nan nan nan nan nan nan nan nan nan nan nan nan nan 235 235 238 237 239 241 243 242 240 239 238 237 234 233 233 233 233 236 239 241 238 237 233 232 234 238 243 243 250 252 253 253 254 258 264 260 260 267 271 274 270 269 265 257 258 263 268 271 265
nan nan nan nan nan nan nan nan nan nan nan nan nan nan nan nan nan nan nan nan nan nan nan nan nan nan nan nan nan nan nan nan nan nan nan nan nan nan nan nan nan 235 232 235 239 239 235 232 231 230 231 234 237 239 240 242 241 237 236 232 235 236 239 244 250 255 253 257 262 264 nan nan 276 273 273 272 269 267 271 270 260 265 278 273 265
nan nan nan nan nan nan nan nan nan nan nan nan nan nan nan nan nan nan nan nan nan nan nan nan nan nan nan nan nan nan nan nan nan nan nan nan nan nan nan nan nan nan nan nan nan nan nan 235 233 234 238 nan 244 247 245 243 245 244 244 243 246 247 245 251 258 258 258 262 263 nan nan nan nan nan nan 268 267 269 269 269 270 265 267 271 267
nan nan nan nan nan nan nan nan nan nan nan nan nan nan nan nan nan nan nan nan nan nan nan nan nan nan nan nan nan nan nan nan nan nan nan nan nan nan nan nan nan nan nan nan nan nan nan nan nan nan nan nan nan nan 248 244 nan 250 252 252 252 253 nan nan nan nan nan nan nan nan nan nan nan nan nan nan nan nan nan nan 269 269 270 271 270
nan nan nan nan nan nan nan nan nan nan nan nan nan nan nan nan nan nan 256 259 nan nan nan nan nan nan nan nan nan nan nan nan nan nan nan nan nan nan nan nan nan nan nan nan nan nan nan nan nan nan nan nan nan nan nan nan nan nan nan nan nan nan nan nan nan nan nan nan nan nan nan nan nan nan nan nan nan nan nan nan nan nan nan 264 267
nan nan nan nan nan nan nan nan nan nan nan nan nan nan nan nan nan nan nan nan nan nan nan nan nan nan nan nan nan nan nan nan nan nan nan nan nan nan nan nan nan nan nan nan nan nan nan nan nan nan nan nan nan nan nan nan nan nan nan nan nan nan nan nan nan nan nan nan nan nan nan nan nan nan nan nan nan nan nan nan nan nan nan nan nan
nan nan nan nan nan nan nan nan nan nan nan nan nan nan nan nan nan nan nan nan nan nan nan nan nan nan nan nan nan nan nan nan nan nan nan nan nan nan nan nan nan nan nan nan nan nan nan nan nan nan nan nan nan nan nan nan nan nan nan nan nan nan nan nan nan nan nan nan nan nan nan nan nan nan nan nan nan nan nan nan nan nan nan nan nan